CW7911 Weather Reports


time (UTC)temp
F
wind
direction
speed
knots
gust
knots
rain 1hr
in
rain 24hr
in
rain mn
in
humidity
%
barometer
mb
20260507051407 48 174 0.0 0.0 0.00 0.01 0.01 95 1003.3
20260507050904 48 174 0.0 0.0 0.00 0.01 0.01 95 1003.2
20260507050400 49 174 0.0 0.0 0.00 0.01 0.01 95 1003.1
20260507045857 49 174 0.0 0.0 0.00 0.01 0.01 95 1003.1
20260507045353 49 174 0.0 0.9 0.00 0.01 0.01 95 1003.0
20260507044851 49 174 0.0 1.7 0.00 0.01 0.01 95 1003.0
20260507044347 50 174 0.0 0.9 0.00 0.01 0.01 95 1003.0
20260507043843 51 174 0.0 1.7 0.00 0.01 0.01 95 1003.1
20260507043340 51 174 1.7 1.7 0.00 0.01 0.01 95 1003.0
20260507042836 51 174 0.9 2.6 0.00 0.01 0.01 95 1003.1
20260507042332 51 174 0.9 2.6 0.00 0.01 0.01 95 1003.0
20260507041829 52 174 0.0 1.7 0.00 0.01 0.01 95 1003.0
20260507041325 53 174 0.9 1.7 0.05 0.01 0.01 95 1003.0
20260507040823 53 174 0.0 0.9 0.05 0.01 0.01 95 1002.9
20260507040319 54 174 0.0 0.0 0.00 0.00 0.00 95 1002.8
20260507035815 54 174 0.0 0.0 0.07 0.39 0.39 95 1003.0
20260507035310 54 174 0.0 0.0 0.19 0.39 0.39 95 1002.9
20260507034809 54 174 0.0 0.9 0.12 0.38 0.38 95 1003.0
20260507034305 54 174 0.9 1.7 0.00 0.36 0.36 95 1002.9
20260507033803 52 174 0.0 0.0 0.00 0.36 0.36 95 1002.6
20260507033301 51 174 0.0 0.9 0.00 0.36 0.36 95 1002.5
20260507032757 51 174 0.0 0.0 0.00 0.36 0.36 95 1002.5
20260507032253 51 174 0.0 0.0 0.00 0.36 0.36 95 1002.1
20260507031750 52 174 0.0 0.0 0.00 0.36 0.36 95 1002.1
20260507031247 51 174 0.0 0.0 0.05 0.36 0.36 95 1002.1
20260507030744 51 174 0.0 0.0 0.05 0.36 0.36 95 1002.1
20260507030241 51 174 0.0 0.0 0.00 0.35 0.35 95 1002.0
20260507025738 51 174 0.0 0.0 0.00 0.35 0.35 95 1002.1
20260507025235 51 174 0.0 0.0 0.00 0.35 0.35 95 1002.2
20260507024734 51 174 0.0 0.0 0.00 0.35 0.35 95 1001.9
20260507024231 51 174 0.9 1.7 0.00 0.35 0.35 95 1002.0
20260507023726 51 174 0.0 0.0 0.00 0.35 0.35 95 1002.0
20260507023223 50 174 0.0 0.0 0.00 0.35 0.35 95 1002.1
20260507022720 50 174 0.0 0.0 0.00 0.35 0.35 95 1002.2
20260507022216 51 174 0.0 0.0 0.00 0.35 0.35 95 1002.1
20260507021712 51 174 0.0 0.0 0.00 0.35 0.35 95 1002.3
20260507021208 51 174 0.0 0.0 0.00 0.35 0.35 95 1002.2
20260507020707 51 174 0.0 0.0 0.00 0.35 0.35 95 1002.3
20260507020202 51 174 0.0 0.0 0.00 0.35 0.35 95 1002.1
20260507015701 51 174 0.0 0.0 0.00 0.35 0.35 95 1002.3
20260507015158 51 174 0.0 0.0 0.07 0.35 0.35 95 1002.1
20260507014654 51 174 0.0 0.0 0.07 0.35 0.35 95 1002.0
20260507014150 51 174 0.0 0.0 0.00 0.34 0.34 95 1002.3
20260507013647 50 174 0.0 0.0 0.00 0.34 0.34 95 1002.3
20260507013144 50 174 0.0 0.0 0.00 0.34 0.34 95 1002.3
20260507012642 49 174 0.0 0.0 0.00 0.34 0.34 95 1002.3
20260507012137 49 174 0.0 0.0 0.00 0.34 0.34 95 1002.8
20260507011636 49 174 0.0 0.0 0.00 0.34 0.34 95 1002.5
20260507011131 48 174 0.0 0.0 0.00 0.34 0.34 95 1002.4
20260507010626 49 174 0.0 0.0 0.00 0.34 0.34 95 1002.4
20260507010122 49 174 0.0 0.0 0.00 0.34 0.34 95 1002.5
20260507005620 49 174 0.0 0.0 0.00 0.34 0.34 95 1002.4
20260507005116 49 174 0.0 0.0 0.00 0.34 0.34 95 1002.5
20260507004613 49 174 0.0 0.0 0.00 0.34 0.34 95 1002.5
20260507004110 49 174 0.0 0.0 0.00 0.34 0.34 95 1002.2
20260507003606 51 174 0.0 0.0 0.00 0.34 0.34 95 1002.5
20260507003101 51 174 0.0 0.0 0.00 0.34 0.34 95 1002.5
20260507002558 51 174 0.0 0.0 0.00 0.34 0.34 95 1002.6
20260507002054 51 174 0.0 0.0 0.00 0.34 0.34 95 1002.4
20260507001551 51 174 0.0 0.0 0.00 0.34 0.34 95 1002.5
20260507001048 54 174 0.0 0.9 0.00 0.34 0.34 95 1002.5
20260507000544 55 174 0.0 0.0 0.00 0.34 0.34 95 1002.3
20260507000040 55 174 0.0 0.0 0.00 0.34 0.34 95 1002.1
20260506235538 55 174 0.0 0.0 0.00 0.34 0.34 95 1002.3
20260506235033 55 174 0.0 0.0 0.00 0.34 0.34 95 1002.3
20260506234531 55 174 0.0 0.0 0.00 0.34 0.34 95 1002.1
20260506234028 55 174 0.0 0.0 0.00 0.34 0.34 95 1002.2
20260506233524 55 174 0.0 0.0 0.00 0.34 0.34 95 1002.3
20260506233016 55 174 0.0 0.0 0.00 0.34 0.34 95 1002.0
20260506232512 55 174 0.0 0.0 0.00 0.34 0.34 95 1002.1
20260506232007 55 174 0.0 0.0 0.00 0.34 0.34 95 1002.1
20260506231505 55 174 0.0 0.0 0.00 0.34 0.34 95 1002.1
20260506231003 55 174 0.0 0.0 0.00 0.34 0.34 95 1002.2
20260506230458 55 174 0.0 0.0 0.00 0.34 0.34 95 1002.1
20260506225956 55 174 0.0 0.0 0.00 0.34 0.34 95 1002.1
20260506225453 55 174 0.0 0.0 0.00 0.34 0.34 95 1002.2
20260506224949 55 174 0.0 0.0 0.00 0.34 0.34 95 1002.0
20260506224446 55 174 0.0 0.0 0.00 0.34 0.34 95 1002.4
20260506223943 55 174 0.0 0.0 0.00 0.34 0.34 95 1002.5
20260506223438 55 174 0.0 0.0 0.00 0.34 0.34 95 1002.6
20260506222936 54 174 0.0 0.0 0.00 0.34 0.34 95 1002.4
20260506222432 53 174 0.0 0.0 0.00 0.34 0.34 95 1002.4
20260506221929 53 174 0.0 0.0 0.00 0.34 0.34 95 1002.5
20260506221426 52 174 0.0 0.0 0.00 0.34 0.34 95 1002.7
20260506220924 51 174 0.0 0.0 0.00 0.34 0.34 95 1002.6
20260506220419 51 174 0.0 0.0 0.00 0.34 0.34 95 1003.0
20260506215916 51 174 0.0 0.0 0.00 0.34 0.34 95 1002.8
20260506215412 51 174 0.0 0.0 0.00 0.34 0.34 95 1003.0
20260506214908 52 174 0.0 0.0 0.00 0.34 0.34 95 1003.0
20260506214405 52 174 0.0 0.0 0.00 0.34 0.34 95 1002.9
20260506213903 52 174 0.0 0.0 0.00 0.34 0.34 95 1003.1
20260506213401 53 174 0.0 0.0 0.00 0.34 0.34 95 1003.2
20260506212858 54 174 0.0 0.0 0.05 0.34 0.34 95 1003.3
20260506212353 55 174 0.0 0.0 0.12 0.34 0.34 95 1003.3
20260506211848 54 174 0.0 0.0 0.12 0.33 0.33 95 1003.1
20260506211344 55 174 0.0 0.0 0.12 0.32 0.32 95 1003.3
20260506210842 55 174 0.0 0.0 0.14 0.31 0.31 95 1003.3
20260506210339 54 174 0.0 0.0 0.12 0.30 0.30 95 1003.6
20260506205836 54 174 0.0 0.0 0.05 0.29 0.29 95 1003.4
20260506205332 55 174 0.0 0.0 0.07 0.28 0.28 95 1003.4
20260506204828 55 174 0.0 0.0 0.07 0.28 0.28 95 1003.3
20260506204326 55 174 0.0 0.0 0.00 0.27 0.27 95 1003.5
20260506203824 55 174 0.0 0.0 0.05 0.27 0.27 95 1003.4
20260506203321 55 174 0.0 0.0 0.05 0.27 0.27 95 1003.4
20260506202817 55 174 0.0 0.0 0.07 0.26 0.26 95 1003.4
20260506202315 55 174 0.0 0.0 0.12 0.26 0.26 95 1003.6
20260506201811 56 174 0.0 0.0 0.05 0.25 0.25 95 1003.6
20260506201308 56 174 0.0 0.0 0.00 0.24 0.24 95 1003.6
20260506200805 57 174 0.0 0.0 0.19 0.24 0.24 95 1003.5
20260506200301 57 174 0.0 0.0 0.17 0.23 0.23 95 1003.7
20260506195757 57 174 0.0 0.0 0.05 0.21 0.21 95 1004.0
20260506195254 56 174 0.0 0.0 0.07 0.20 0.20 95 1003.8
20260506194752 57 174 0.0 0.0 0.07 0.20 0.20 95 1003.7
20260506194248 57 174 0.0 0.0 0.07 0.19 0.19 95 1004.0
20260506193746 57 174 0.0 0.0 0.07 0.19 0.19 95 1003.9
20260506193242 57 174 0.0 0.0 0.00 0.18 0.18 95 1004.2
20260506192739 56 174 0.0 0.0 0.00 0.18 0.18 95 1004.0
20260506192236 56 174 0.0 0.0 0.05 0.18 0.18 95 1004.0
20260506191732 56 174 0.0 0.0 0.05 0.18 0.18 95 1004.1
20260506191229 56 174 0.0 0.0 0.07 0.17 0.17 95 1004.1
20260506190726 57 174 0.0 0.0 0.07 0.17 0.17 95 1004.1
20260506190222 58 174 0.0 0.0 0.05 0.16 0.16 95 1004.3
20260506185720 58 174 0.0 0.0 0.17 0.16 0.16 95 1004.3
20260506185216 58 174 0.0 0.0 0.12 0.15 0.15 95 1004.3
20260506184714 58 174 0.0 0.0 0.07 0.13 0.13 95 1004.2
20260506184211 57 174 0.0 0.0 0.12 0.13 0.13 95 1004.3
20260506183707 57 174 0.0 0.0 0.17 0.12 0.12 95 1004.5
20260506183203 57 174 0.0 0.0 0.31 0.11 0.11 95 1004.4
20260506182701 57 174 0.0 0.0 0.19 0.08 0.08 95 1004.4
20260506182157 56 174 0.0 0.9 0.12 0.06 0.06 95 1004.6
20260506181655 56 174 0.0 0.0 0.12 0.05 0.05 94 1004.7
20260506181152 56 174 0.0 0.0 0.05 0.03 0.03 94 1004.4
20260506180649 55 174 0.0 0.0 0.05 0.03 0.03 93 1004.1
20260506180145 55 174 0.0 0.9 0.07 0.02 0.02 92 1003.9
20260506175642 55 174 0.0 0.0 0.07 0.02 0.02 92 1003.8
20260506175138 55 174 0.0 0.0 0.05 0.01 0.01 89 1004.1
20260506174632 56 174 0.0 1.7 0.05 0.01 0.01 88 1004.0
20260506174128 56 174 0.0 1.7 0.00 0.00 0.00 89 1004.0
20260506173626 57 174 0.9 1.7 0.00 0.00 0.00 87 1004.1
20260506173122 57 174 0.0 2.6 0.00 0.00 0.00 84 1003.9
20260506172619 58 174 0.0 1.7 0.00 0.00 0.00 81 1004.3
20260506172115 59 174 0.0 3.5 0.00 0.00 0.00 80 1004.2
20260506171613 59 174 0.0 6.1 0.00 0.00 0.00 82 1004.3
20260506171110 58 174 0.0 0.0 0.00 0.00 0.00 84 1004.5
20260506170607 58 174 0.0 0.0 0.00 0.00 0.00 84 1004.4
20260506170059 58 174 0.0 0.0 0.00 0.00 0.00 85 1004.7
20260506165558 57 174 0.0 0.0 0.00 0.00 0.00 84 1004.8
20260506165053 57 174 0.0 0.0 0.00 0.00 0.00 84 1005.0
20260506164551 56 174 0.0 0.0 0.00 0.00 0.00 84 1005.0
20260506164048 56 174 0.0 0.0 0.00 0.00 0.00 84 1005.1
20260506163543 58 174 0.0 0.0 0.00 0.00 0.00 83 1005.4
20260506163039 58 174 0.0 0.0 0.00 0.00 0.00 83 1005.4
20260506162535 57 174 0.0 0.0 0.00 0.00 0.00 83 1005.5
20260506162027 58 174 0.0 0.0 0.00 0.00 0.00 83 1005.7
20260506161525 57 174 0.0 0.0 0.00 0.00 0.00 83 1005.8
20260506161022 57 174 0.0 0.0 0.00 0.00 0.00 83 1005.9
20260506160519 57 174 0.0 0.0 0.00 0.00 0.00 82 1006.0
20260506160016 58 174 0.0 1.7 0.00 0.00 0.00 81 1006.4
20260506155514 58 174 0.0 0.0 0.00 0.00 0.00 82 1006.2
20260506153646 55 174 0.0 0.0 0.00 0.00 0.00 85 1006.5
20260506153143 55 174 0.0 0.0 0.00 0.00 0.00 84 1006.3
20260506152640 56 174 0.0 0.0 0.00 0.00 0.00 83 1006.2
20260506152138 57 174 0.9 1.7 0.00 0.00 0.00 82 1006.3
20260506151636 57 174 0.0 0.0 0.00 0.00 0.00 82 1006.3
20260506151132 58 174 0.9 2.6 0.00 0.00 0.00 81 1006.4
20260506150629 58 174 0.9 0.9 0.00 0.00 0.00 81 1006.5
20260506150126 58 174 0.0 0.0 0.00 0.00 0.00 81 1006.4
20260506145623 58 174 0.0 0.0 0.00 0.00 0.00 81 1006.3
20260506145120 58 174 0.9 1.7 0.00 0.00 0.00 81 1006.2
20260506144618 57 174 0.0 0.0 0.00 0.00 0.00 82 1006.0
20260506144114 57 174 0.0 0.0 0.00 0.00 0.00 83 1006.2
20260506143612 56 174 0.0 0.0 0.00 0.00 0.00 84 1006.2
20260506143110 55 174 0.0 0.9 0.00 0.00 0.00 84 1005.8
20260506142608 55 174 0.0 0.9 0.00 0.00 0.00 84 1006.1
20260506142106 55 174 0.0 0.0 0.00 0.00 0.00 84 1006.0
20260506141603 55 174 0.0 0.0 0.00 0.00 0.00 84 1006.3
20260506141101 55 174 0.0 1.7 0.00 0.00 0.00 84 1006.3
20260506140558 55 174 0.0 0.0 0.00 0.00 0.00 84 1006.3
20260506140055 54 174 0.0 1.7 0.00 0.00 0.00 85 1006.3
20260506135552 54 174 0.0 0.0 0.00 0.00 0.00 85 1006.6
20260506135048 53 174 0.0 0.0 0.00 0.00 0.00 86 1006.4
20260506134545 53 174 0.0 0.0 0.00 0.00 0.00 87 1006.7
20260506134041 52 174 0.0 0.0 0.00 0.00 0.00 87 1006.8
20260506133538 52 174 0.0 0.0 0.00 0.00 0.00 87 1006.6
20260506133035 52 174 0.0 0.0 0.00 0.00 0.00 87 1006.7
20260506132532 53 174 0.0 0.0 0.00 0.00 0.00 87 1006.9
20260506132030 52 174 0.0 0.0 0.00 0.00 0.00 87 1006.9
20260506131527 53 174 0.0 0.0 0.00 0.00 0.00 87 1006.8
20260506131023 53 174 0.0 0.0 0.00 0.00 0.00 86 1006.8
20260506130520 53 174 0.0 0.9 0.00 0.00 0.00 86 1006.4
20260506130018 53 174 0.0 0.0 0.00 0.00 0.00 85 1006.4
20260506125516 53 174 0.0 0.0 0.00 0.00 0.00 85 1006.4
20260506125013 53 174 0.0 0.9 0.00 0.00 0.00 84 1006.7
20260506124511 54 174 0.0 0.0 0.00 0.00 0.00 83 1006.7
20260506124009 55 174 0.9 1.7 0.00 0.00 0.00 83 1006.7
20260506123506 55 174 0.0 0.0 0.00 0.00 0.00 82 1006.7
20260506123004 55 174 0.0 0.0 0.00 0.00 0.00 83 1006.6
20260506122500 55 174 0.0 0.0 0.00 0.00 0.00 82 1007.0
20260506121959 55 174 0.0 0.0 0.00 0.00 0.00 83 1007.0
20260506121455 55 174 0.0 0.0 0.00 0.00 0.00 83 1007.0
20260506120952 55 174 0.0 0.0 0.00 0.00 0.00 84 1006.9
20260506120450 53 174 0.0 0.0 0.00 0.00 0.00 86 1007.0
20260506115947 52 174 0.0 0.0 0.00 0.00 0.00 88 1007.0
20260506115445 52 174 0.0 0.0 0.00 0.00 0.00 88 1007.0
20260506114943 52 174 0.0 0.0 0.00 0.00 0.00 88 1007.1
20260506114440 51 174 0.0 0.0 0.00 0.00 0.00 89 1006.8
20260506113939 51 174 0.0 0.0 0.00 0.00 0.00 89 1007.3
20260506113436 51 174 0.0 0.0 0.00 0.00 0.00 89 1007.4
20260506112932 51 174 0.0 0.0 0.00 0.00 0.00 90 1007.3
20260506112430 51 174 0.0 0.0 0.00 0.00 0.00 91 1007.2
20260506111927 51 174 0.0 0.0 0.00 0.00 0.00 91 1007.4
20260506111425 51 174 0.0 0.0 0.00 0.00 0.00 92 1007.6
20260506110922 51 174 0.0 0.0 0.00 0.00 0.00 92 1007.2
20260506110420 51 174 0.0 0.0 0.00 0.00 0.00 92 1007.3
20260506105916 50 174 0.0 0.0 0.00 0.00 0.00 93 1007.4
20260506105413 50 174 0.0 0.0 0.00 0.00 0.00 93 1007.7
20260506104910 50 174 0.0 0.0 0.00 0.00 0.00 93 1007.4
20260506104408 49 174 0.0 0.0 0.00 0.00 0.00 92 1007.3
20260506103905 49 174 0.0 0.0 0.00 0.00 0.00 92 1007.2
20260506103403 49 174 0.0 0.0 0.00 0.00 0.00 92 1007.0
20260506102900 48 174 0.0 0.0 0.00 0.00 0.00 92 1007.2
20260506102358 48 174 0.0 0.0 0.00 0.00 0.00 92 1007.1
20260506101854 48 174 0.0 0.0 0.00 0.00 0.00 92 1006.9
20260506101350 48 174 0.0 0.0 0.00 0.00 0.00 92 1007.0
20260506100848 48 174 0.0 0.0 0.00 0.00 0.00 92 1006.8
20260506100347 48 174 0.0 0.0 0.00 0.00 0.00 92 1006.9
20260506095844 49 174 0.0 0.0 0.00 0.00 0.00 92 1006.9
20260506095342 50 174 0.0 0.0 0.00 0.00 0.00 92 1006.8
20260506094838 50 174 0.0 0.0 0.00 0.00 0.00 92 1006.7
20260506094337 50 174 0.0 0.0 0.00 0.00 0.00 92 1006.6
20260506093835 49 174 0.0 2.6 0.00 0.00 0.00 92 1007.0
20260506093332 49 174 0.0 0.0 0.00 0.00 0.00 92 1006.7
20260506092830 48 174 0.0 0.0 0.00 0.00 0.00 92 1006.8
20260506092327 48 174 0.0 0.0 0.00 0.00 0.00 92 1006.8
20260506091824 48 174 0.0 0.0 0.00 0.00 0.00 92 1006.9
20260506091322 49 174 0.0 0.0 0.00 0.00 0.00 92 1006.9
20260506090819 49 174 0.0 0.0 0.00 0.00 0.00 92 1006.7
20260506090316 49 174 0.0 0.0 0.00 0.00 0.00 92 1006.7
20260506085813 49 174 0.0 0.0 0.00 0.00 0.00 92 1006.5
20260506085309 49 174 0.0 0.0 0.00 0.00 0.00 92 1006.5
20260506084806 49 174 0.0 0.9 0.00 0.00 0.00 92 1006.5
20260506084302 49 174 0.0 0.0 0.00 0.00 0.00 92 1006.6
20260506083759 51 174 0.0 0.0 0.00 0.00 0.00 93 1006.7
20260506083257 51 174 0.0 0.0 0.00 0.00 0.00 93 1006.6
20260506082754 51 174 0.0 0.0 0.00 0.00 0.00 92 1006.5
20260506082249 51 174 0.0 0.0 0.00 0.00 0.00 92 1006.6
20260506081747 51 174 0.0 0.0 0.00 0.00 0.00 92 1006.4
20260506081244 51 174 0.0 0.0 0.00 0.00 0.00 92 1006.5
20260506080743 51 174 0.0 0.0 0.00 0.00 0.00 91 1006.2
20260506080239 51 174 0.0 0.0 0.00 0.00 0.00 91 1006.4
20260506073223 51 174 0.0 0.0 0.00 0.00 0.00 93 1006.3
20260506072719 51 174 0.0 0.0 0.00 0.00 0.00 92 1006.3
20260506072217 51 174 0.0 0.0 0.00 0.00 0.00 92 1006.3
20260506071714 51 174 0.0 0.0 0.00 0.00 0.00 92 1006.3
20260506071212 51 174 0.0 0.0 0.00 0.00 0.00 93 1006.3
20260506070709 51 174 0.0 0.0 0.00 0.00 0.00 93 1005.9
20260506070206 51 174 0.0 0.0 0.00 0.00 0.00 93 1006.0
20260506062143 50 174 0.0 0.0 0.00 0.00 0.00 93 1005.7
20260506061639 50 174 0.0 0.0 0.00 0.00 0.00 93 1005.7
20260506061137 50 174 0.0 0.0 0.00 0.00 0.00 93 1005.8
20260506060635 50 174 0.0 0.0 0.00 0.00 0.00 93 1005.7
20260506060132 49 174 0.0 0.0 0.00 0.00 0.00 93 1005.9